Location: Berlin
(42.3812°N, 71.6370°W)
Time: 13:08:45
(UTC+00:00)

BREEZE-M DEB (TANK) - Visible Passes

Search period start: 14 February 2026 00:00
Search period end: 24 February 2026 00:00
Orbit: 355 x 13408 km, 46.0° (Epoch: 12 February)

Date Brightness Start Highest point End Pass type
(mag) Time Alt. Az. Time Alt. Az. Time Alt. Az.
15 Feb 4.1 01:16:52 10° W 01:29:27 61° NW 01:29:27 61° NW visible
16 Feb 5.9 02:46:14 10° WNW 02:49:05 19° WNW 02:49:05 19° WNW visible
16 Feb 4.6 23:24:50 10° WSW 23:51:16 76° NNW 23:55:26 25° ENE visible
18 Feb 3.8 01:01:01 10° W 01:15:02 68° N 01:15:02 68° N visible
19 Feb 5.6 02:30:40 10° WNW 02:34:38 23° WNW 02:34:38 23° WNW visible
19 Feb 4.8 23:08:06 10° W 23:36:01 76° NNW 23:40:56 19° ENE visible
21 Feb 3.6 00:44:58 10° W 00:59:58 70° N 01:00:31 66° NE visible
22 Feb 5.2 02:14:57 10° WNW 02:20:03 29° WNW 02:20:03 29° WNW visible
22 Feb 5.0 22:51:09 10° W 23:20:39 75° N 23:26:21 14° ENE visible
